www.pogodaiklimat.ru

Погода и климат >> Архив погоды >> Россия >> Ханты-Мансийский АО >> Ханты-Мансийск


АРХИВ ПОГОДЫ в Ханты-Мансийске

Время (UTC), дата Ветер
(напр.,м/с)
 
Видим.   Явления Облачность Т
(С)
Тd
(С)
f
(%)
Тe
(С)
Тes
(С)
Комфортность P
(гПа)
Po
(гПа)
Тmin
(С)
Tmax
(С)
R
(мм)
R24
(мм)
S
(см)
18 16.08 Ю 1 10 км 10/0
[Ci]
+17.8 +14.3 80 +19 +19 тепло 1013.7 1008.5
21 16.08 ЮВ 1 10 км 6/0
[Ac cast]
+16.8 +14.2 85 +18 +18 тепло 1013.5 1008.3
00 17.08 Ю 1 10 км 10/8 600 м
[Sc Ci]
+16.1 +14.1 88 +17 +17 тепло 1013.7 1008.5
03 17.08 ЮВ 2 10 км 10/6 1000 м
[Sc Ac lent]
+17.9 +15.1 84 +18 +19 тепло 1013.2 1008.0 +15.8
06 17.08 Ю 1 10 км 10/8 1000 м
[Sc Ac As]
+21.9 +17.0 74 +26 +27 душно 1013.3 1008.1
09 17.08 С 1 4000 м слаб. дождь 10/0
[Ac As]
+19.5 +18.3 93 +23 +26 комфорт 1013.3 1008.1
12 17.08 С 2 4000 м слаб. дождь 10/0
[Ac As]
+16.5 +15.4 93 +17 +17 по сезону 1013.8 1008.5
15 17.08 С 2 4000 м слаб. дождь 10/9 600 м
[Frnb Ac As]
+15.2 +14.1 93 +15 +15 по сезону 1014.6 1009.4 +22.1 14
18 17.08 СЗ 1 10 км {дождь} 10/8 1000 м
[Sc Ac As]
+14.9 +13.9 94 +15 +15 тепло 1015.2 1009.9
21 17.08 СЗ 1 10 км 8/0
[Cs]
+12.9 +12.0 94 +13 +13 по сезону 1015.4 1010.1
00 18.08 СЗ 1 10 км 6/0
[Cs]
+11.7 +10.9 95 +11 +11 по сезону 1016.7 1011.3
03 18.08 С 2 10 км 4/0
[Cs]
+15.3 +12.6 84 +15 +18 тепло 1017.5 1012.3 +11.7 0.3
06 18.08 С 2 10 км 3/0
[Cs]
+19.1 +12.4 65 +21 +29 комфорт 1018.5 1013.3
09 18.08 СЗ 2 10 км 4/4 1000 м
[Cu med, cong]
+20.1 +11.4 57 +22 +27 комфорт 1019.0 1013.8
12 18.08 С 2 10 км 1/1 1000 м
[Cu med, cong]
+20.6 +10.2 51 +23 +25 комфорт 1019.8 1014.6
15 18.08 СЗ 1 10 км ясно +15.1 +9.1 67 +16 +16 тепло 1021.5 1016.2 +21.9
18 18.08 СЗ 1 10 км ясно +11.6 +8.7 82 +11 +11 по сезону 1023.1 1017.7
21 18.08 СЗ 1 10 км ясно +9.7 +7.7 87 +9 +9 по сезону 1024.3 1018.9
00 19.08 СЗ 1 10 км ясно +8.6 +7.5 93 +8 +8 по сезону 1025.7 1020.2
03 19.08 СЗ 2 10 км ясно +12.7 +9.3 80 +12 +15 по сезону 1026.6 1021.2 +8.0
06 19.08 С 4 10 км 1/1 600 м
[Cu hum]
+16.8 +7.9 56 +16 +22 по сезону 1026.6 1021.3
09 19.08 СЗ 3 10 км ясно +18.9 +7.7 48 +20 +27 тепло 1025.7 1020.4
12 19.08 СЗ 2 10 км ясно +19.2 +8.2 49 +20 +23 тепло 1025.1 1019.8
15 19.08 СЗ 1 10 км 10/0
[Ci]
+14.4 +10.3 76 +15 +15 по сезону 1024.6 1019.2 +19.6
18 19.08 СЗ 1 10 км 10/0
[Ci]
+11.5 +9.1 85 +11 +11 по сезону 1024.3 1018.8
21 19.08 С 2 10 км 10/0
[Ci]
+10.2 +7.5 83 +9 +9 по сезону 1023.7 1018.3
00 20.08 СЗ 1 10 км ясно +8.0 +6.5 90 +7 +7 прохладно 1023.8 1018.3
03 20.08 С 2 10 км 3/3 600 м
[Cu hum]
+10.9 +8.0 82 +10 +12 по сезону 1023.2 1017.8 +7.9
06 20.08 С 2 10 км 9/8 600 м
[Cb cap Ac As]
+13.9 +9.5 75 +13 +15 по сезону 1022.9 1017.5
09 20.08 С 1 10 км 10/0
[Ac As]
+14.7 +10.6 76 +15 +18 по сезону 1022.5 1017.2
12 20.08 С 2 10 км 10/10 600 м
[Cb cap]
+14.6 +10.6 77 +14 +14 прохладно 1022.4 1017.0
15 20.08 С 1 10 км 10/10 600 м
[Cb cap]
+13.3 +11.4 88 +13 +13 по сезону 1022.4 1017.0 +15.1
18 20.08 С 1 10 км {ливн. осадки} 10/10 600 м
[Cb cap]
+12.8 +11.3 91 +13 +13 по сезону 1021.8 1016.5
21 20.08 СВ 1 10 км 10/10 600 м
[Cb cap]
+12.3 +10.8 91 +12 +12 по сезону 1021.4 1016.0
00 21.08 С 1 10 км 10/0
[Ac As]
+11.7 +10.3 91 +11 +11 по сезону 1021.2 1015.8
03 21.08 С 2 10 км слаб. морось 10/10 300 м
[St]
+12.0 +10.4 90 +11 +11 по сезону 1021.3 1015.9 +11.7 0.3
06 21.08 С 2 10 км {морось} 10/10 300 м
[St]
+13.3 +10.5 83 +13 +13 по сезону 1021.1 1015.7
09 21.08 С 2 10 км 10/8 300 м
[Sc As op]
+16.4 +12.4 77 +17 +17 тепло 1020.6 1015.3
12 21.08 С 1 10 км 10/0
[Cs]
+19.6 +14.1 71 +22 +25 комфорт 1019.7 1014.5
15 21.08 СЗ 1 10 км ясно +16.8 +14.4 86 +18 +18 тепло 1019.3 1014.0 +19.7 0.0
18 21.08 штиль 0 10 км ясно +13.9 +12.4 91 +13 +13 по сезону 1019.5 1014.2
21 21.08 СЗ 1 10 км ясно +13.3 +12.1 92 +13 +13 тепло 1019.0 1013.6
00 22.08 штиль 0 10 км туман поземный ясно +11.8 +11.0 95 +11 +11 по сезону 1019.1 1013.7
03 22.08 С 1 10 км 8/0
[As trans]
+14.7 +13.3 91 +15 +17 тепло 1018.9 1013.6 +11.6
06 22.08 СЗ 2 10 км ясно +20.6 +14.6 68 +24 +32 комфорт 1018.2 1013.0
09 22.08 З 1 10 км 1/1 1000 м
[Cb cap]
+22.5 +13.9 58 +26 +34 жарко 1017.3 1012.1
12 22.08 З 1 10 км 4/3 1000 м
[Cu med, cong Cs]
+23.4 +13.3 53 +27 +29 душно 1016.5 1011.3
15 22.08 З 1 10 км 8/6 1000 м
[Cb cap Ac cast]
+18.0 +11.6 66 +19 +19 тепло 1016.0 1010.8 +23.9
18 22.08 штиль 0 10 км 8/6 1000 м
[Cb cap Ac cast]
+15.2 +12.4 83 +15 +15 тепло 1015.8 1010.5
21 22.08 штиль 0 10 км 10/0
[]
+14.3 +12.7 90 +14 +14 тепло 1015.4 1010.1
00 23.08 штиль 0 10 км туман поземный ясно +11.5 +10.6 94 +11 +11 по сезону 1014.7 1009.3
03 23.08 ЮВ 1 10 км 8/4 600 м
[Cb cap Ac cast]
+16.0 +13.6 86 +17 +18 тепло 1014.0 1008.7 +11.3
06 23.08 Ю 2 10 км 10/8 1000 м
[Sc diur, vesp As trans]
+19.1 +14.7 76 +21 +22 комфорт 1012.8 1007.6
09 23.08 Ю 2 10 км 10/3 1000 м
[Cu hum As trans]
+22.0 +14.3 62 +25 +27 комфорт 1010.5 1005.4

 

Местоположение метеостанции Ханты-Мансийск (Ханты-Мансийский АО, Россия): широта 61.03 долгота 69.12 высота над уровнем моря 44 м.

В архиве по умолчанию представлена погода в Ханты-Мансийске за последнюю неделю. Архивные данные за месяц целиком и за предыдущие месяцы, начиная с января 2011 года, Вы можете получить, выбрав интересующий диапазон дат из раскрывающегося списка и нажав кнопку "Ввод!".


*Определитесь, кто Вы:
робот инопланетянин человек

Внимание! Время в таблицах - всемирное. Для получения местного времени необходимо прибавить поправку, которая равна 5 ч.

Смотрите также архив погоды в соседних городах и на ближайших метеорологических станциях:

Погода в Алтае (Ханты-Мансийский АО, Россия) (78 км)
Погода в Сытомино (Ханты-Мансийский АО, Россия) (121 км)
Погода в Талинке (Ханты-Мансийский АО, Россия) (153 км)
Погода в Демьянском (Тюменская область, Россия) (159 км)
Погода в Салыме (Ханты-Мансийский АО, Россия) (167 км)
Погода в Кондинском (Ханты-Мансийский АО, Россия) (180 км)
Погода в Нефтеюганске (Ханты-Мансийский АО, Россия) (188 км)
Погода в Увате (Тюменская область, Россия) (207 км)
Погода в Октябрьском (Ханты-Мансийский АО, Россия) (226 км)
Погода в Сургуте (Ханты-Мансийский АО, Россия) (233 км)

Пояснения к столбцам:

Ветер - указаны скорость ветра в м/с - средняя за 10 мин, порывы в срок и между сроками (в фигурных скобках) и направление, откуда дует ветер: С - северный, СВ - северо-восточный, В - восточный, ЮВ - юго-восточный, Ю - южный, ЮЗ - юго-западный, З - западный, СЗ - северо-западный.
Видимость - горизонтальная дальность видимости в метрах или километрах. При видимости от 1 до 10 км при отсутствии осадков обычно наблюдается дымка, при ухудшении видимости до 1 км и менее - туман. В сухую погоду видимость может ухудшаться дымом, пылью или мглою.
Явления - указаны атмосферные явления, наблюдавшиеся в срок или в последний час перед сроком; фигурными скобками обозначены явления, наблюдавшиеся между сроками (за 1-3 часа до срока); квадратными скобками обозначены град или гололедные отложения с указанием их диаметра в мм.
Облачность - указаны через наклонную черту общая и нижняя облачность в баллах и высота нижней границы облаков в метрах; квадратными скобками обозначены формы облаков: Ci - перистые, Cs - перисто-слоистые, Cc - перисто-кучевые, Ac - высококучевые, As - высокослоистые, Sc - слоисто-кучевые, Ns - слоисто-дождевые, Cu - кучевые, Cb - кучево-дождевые. Подробнее классификацию облаков см. в Атласе облаков (PDF).
T - Температура воздуха - температура, измеренная на высоте 2 м над землей.
Td - Температура точки росы - температура, при понижении до которой содержащийся в воздухе водяной пар достигнет насыщения.
f - Относительная влажность воздуха - влажноcть воздуха, измеренная на высоте 2 м над землей.
Te - Эффективная температура - температура, которую ощущает одетый по сезону человек в тени. Характеристика душности погоды. При расчете учитывается влияние влажности воздуха и скорости ветра на теплоощущения человека.
Tes - Эффективная температура на солнце - температура, которую ощущает человек, с поправкой на солнечный нагрев. Характеристика знойности погоды. Зависит от высоты солнца над горизонтом, облачности и скорости ветра. Ночью, в пасмурную погоду, а также при ветре 12 м/с и более поправка равна нулю.
P - Атмосферное давление - приведенное к уровню моря атмосферное давление.
Po - Атмосферное давление - измеренное на уровне метеостанции атмосферное давление.
Tmin - Минимальная температура - минимум температуры воздуха на высоте 2 м над землей.
Tmax - Максимальная температура - максимум температуры воздуха на высоте 2 м над землей.
R - Количество осадков - Количество выпавших осадков за период времени, мм. При наведении курсора мыши на число - период времени, за который выпало указанное количество осадков.
R24 - Количество осадков - Количество выпавших осадков за 24 часа, мм.
S - Снежный покров - Высота снежного покрова, см. При наведении курсора мыши на число - состояние снежного покрова и степень покрытия местности в баллах.